Overview Statistics Trail Chart Weather Telemetry Raw packets
 

This is the latest recevied weather packets stored in our database for station/object KC9DRE. If no packets are shown the sender has not sent any weather packets the latest 10 day(s).

<< 53 54 55 56 57 58 59 >>
Time Temp. Humidity Pressure Rain* Wind** Luminosity Snow
1777579092 16.67° C 40% 1016.9 hPa 0 mm - 766 W/m² -
1777578791 16.67° C 40% 1017 hPa 0 mm - 729 W/m² -
1777578487 17.78° C 39% 1016.8 hPa 0 mm - 725 W/m² -
1777578182 17.22° C 39% 1017 hPa 0 mm - 733 W/m² -
1777577880 16.11° C 42% 1017 hPa 0 mm - 753 W/m² -
1777577574 16.11° C 41% 1017 hPa 0 mm - 787 W/m² -
1777577271 16.11° C 43% 1017.2 hPa 0 mm - 787 W/m² -
1777576967 16.11° C 41% 1017.2 hPa 0 mm - 789 W/m² -
1777576664 16.67° C 39% 1017.2 hPa 0 mm - 779 W/m² -
1777576363 16.67° C 38% 1017.1 hPa 0 mm - 795 W/m² -
1777576060 16.11° C 40% 1017.4 hPa 0 mm - 798 W/m² -
1777575756 17.22° C 40% 1017.3 hPa 0 mm - 810 W/m² -
1777575452 17.78° C 41% 1017.4 hPa 0 mm - 831 W/m² -
1777575148 16.67° C 45% 1017.4 hPa 0 mm - 821 W/m² -
1777574844 16.11° C 43% 1017.4 hPa 0 mm - 819 W/m² -
1777574542 16.11° C 47% 1017.3 hPa 0 mm - 846 W/m² -
1777574238 16.11° C 39% 1017.2 hPa 0 mm - 835 W/m² -
1777573933 15.56° C 45% 1017.2 hPa 0 mm - 870 W/m² -
1777573628 15.56° C 47% 1017.4 hPa 0 mm - 861 W/m² -
1777573324 15.56° C 47% 1017.5 hPa 0 mm - 341 W/m² -
1777573020 15° C 48% 1017.4 hPa 0 mm - 864 W/m² -
1777572716 15° C 46% 1017.5 hPa 0 mm - 207 W/m² -
1777572411 15.56° C 44% 1017.5 hPa 0 mm - 875 W/m² -
1777572108 15.56° C 47% 1017.5 hPa 0 mm - 876 W/m² -
1777571808 15° C 47% 1017.5 hPa 0 mm - 858 W/m² -

* Rain latest hour (hover to see other rain measurements)
** Current wind speed in m/s (hover to see current wind gust speed)